Time,TemperatureF,DewpointF,PressureIn,WindDirection,WindDirectionDegrees,WindSpeedMPH,WindSpeedGustMPH,Humidity,HourlyPrecipIn,Conditions,Clouds,dailyrainin,SolarRadiationWatts/m^2,SoftwareType,DateUTC
2013-03-22 00:03:00,51.0,42.0,-100.00,West,277,2.0,-999.0,71,0.00,,,-99.99,0.000000,,2013-03-22 04:03:00,
2013-03-22 00:12:00,50.0,42.0,-100.00,WNW,286,1.0,-999.0,74,0.00,,,-99.99,0.000000,,2013-03-22 04:12:00,
2013-03-22 00:23:00,50.0,42.0,-100.00,WNW,286,1.0,-999.0,74,0.00,,,-99.99,0.000000,,2013-03-22 04:23:00,
2013-03-22 00:32:00,49.0,42.0,-100.00,NW,306,2.0,-999.0,76,0.00,,,-99.99,0.000000,,2013-03-22 04:32:00,
2013-03-22 00:43:00,50.0,43.0,-100.00,NW,311,2.0,-999.0,76,0.00,,,-99.99,0.000000,,2013-03-22 04:43:00,
2013-03-22 00:52:00,50.0,43.0,-100.00,NW,311,2.0,-999.0,76,0.00,,,-99.99,0.000000,,2013-03-22 04:52:00,
2013-03-22 01:02:00,50.0,43.0,-100.00,WNW,294,2.0,-999.0,76,0.00,,,-99.99,0.000000,,2013-03-22 05:02:00,
2013-03-22 01:12:00,49.0,42.0,-100.00,West,269,1.0,-999.0,77,0.00,,,-99.99,0.000000,,2013-03-22 05:12:00,
2013-03-22 01:22:00,49.0,42.0,-100.00,West,269,1.0,-999.0,77,0.00,,,-99.99,0.000000,,2013-03-22 05:22:00,
2013-03-22 01:32:00,47.0,42.0,-100.00,West,280,2.0,-999.0,80,0.00,,,-99.99,0.000000,,2013-03-22 05:32:00,
2013-03-22 01:42:00,47.0,42.0,-100.00,WNW,284,1.0,-999.0,81,0.00,,,-99.99,0.000000,,2013-03-22 05:42:00,
2013-03-22 01:52:00,47.0,42.0,-100.00,WNW,284,1.0,-999.0,81,0.00,,,-99.99,0.000000,,2013-03-22 05:52:00,
2013-03-22 02:02:00,46.0,41.0,-100.00,West,269,1.0,-999.0,84,0.00,,,-99.99,0.000000,,2013-03-22 06:02:00,
2013-03-22 02:13:00,45.0,41.0,-100.00,WNW,282,0.0,-999.0,86,0.00,,,-99.99,0.000000,,2013-03-22 06:13:00,
2013-03-22 02:22:00,45.0,41.0,-100.00,WNW,282,0.0,-999.0,86,0.00,,,-99.99,0.000000,,2013-03-22 06:22:00,
2013-03-22 02:32:00,45.0,41.0,-100.00,WSW,247,1.0,-999.0,87,0.00,,,-99.99,0.000000,,2013-03-22 06:32:00,
2013-03-22 02:42:00,45.0,42.0,-100.00,NW,314,2.0,-999.0,89,0.00,,,-99.99,0.000000,,2013-03-22 06:42:00,
2013-03-22 02:52:00,45.0,42.0,-100.00,NW,314,2.0,-999.0,89,0.00,,,-99.99,0.000000,,2013-03-22 06:52:00,
2013-03-22 03:03:00,45.0,43.0,-100.00,NNW,337,1.0,-999.0,90,0.00,,,-99.99,0.000000,,2013-03-22 07:03:00,
2013-03-22 03:12:00,45.0,43.0,-100.00,NNW,329,1.0,-999.0,90,0.00,,,-99.99,0.000000,,2013-03-22 07:12:00,
2013-03-22 03:22:00,45.0,43.0,-100.00,NNW,329,1.0,-999.0,90,0.00,,,-99.99,0.000000,,2013-03-22 07:22:00,
2013-03-22 03:32:00,44.0,42.0,-100.00,North,351,1.0,-999.0,91,0.00,,,-99.99,0.000000,,2013-03-22 07:32:00,
2013-03-22 03:42:00,44.0,42.0,-100.00,NNE,30,1.0,-999.0,91,0.00,,,-99.99,0.000000,,2013-03-22 07:42:00,
2013-03-22 03:52:00,44.0,42.0,-100.00,NNE,30,1.0,-999.0,91,0.00,,,-99.99,0.000000,,2013-03-22 07:52:00,
2013-03-22 04:03:00,44.0,42.0,-100.00,North,354,3.0,-999.0,91,0.00,,,-99.99,0.000000,,2013-03-22 08:03:00,
2013-03-22 04:13:00,45.0,42.0,-100.00,North,4,3.0,-999.0,89,0.00,,,-99.99,0.000000,,2013-03-22 08:13:00,
2013-03-22 04:22:00,45.0,42.0,-100.00,North,4,3.0,-999.0,89,0.00,,,-99.99,0.000000,,2013-03-22 08:22:00,
2013-03-22 04:32:00,44.0,41.0,-100.00,North,4,1.0,-999.0,88,0.00,,,-99.99,0.000000,,2013-03-22 08:32:00,
2013-03-22 04:42:00,45.0,41.0,-100.00,North,353,2.0,-999.0,88,0.00,,,-99.99,0.000000,,2013-03-22 08:42:00,
2013-03-22 04:52:00,45.0,41.0,-100.00,North,353,2.0,-999.0,88,0.00,,,-99.99,0.000000,,2013-03-22 08:52:00,
2013-03-22 05:02:00,45.0,41.0,-100.00,ESE,111,1.0,-999.0,87,0.00,,,-99.99,0.000000,,2013-03-22 09:02:00,
2013-03-22 05:12:00,44.0,41.0,-100.00,NNW,345,1.0,-999.0,88,0.00,,,-99.99,0.000000,,2013-03-22 09:12:00,
2013-03-22 05:22:00,44.0,41.0,-100.00,NNW,345,1.0,-999.0,88,0.00,,,-99.99,0.000000,,2013-03-22 09:22:00,
2013-03-22 05:32:00,43.0,40.0,-100.00,NE,52,1.0,-999.0,88,0.00,,,-99.99,0.000000,,2013-03-22 09:32:00,
2013-03-22 05:42:00,44.0,41.0,-100.00,NNE,17,2.0,-999.0,89,0.00,,,-99.99,0.000000,,2013-03-22 09:42:00,
2013-03-22 05:53:00,44.0,41.0,-100.00,NNE,17,2.0,-999.0,89,0.00,,,-99.99,0.000000,,2013-03-22 09:53:00,
2013-03-22 06:04:00,44.0,41.0,-100.00,NNE,23,2.0,-999.0,89,0.00,,,-99.99,0.000000,,2013-03-22 10:04:00,
2013-03-22 06:12:00,44.0,41.0,-100.00,East,79,1.0,-999.0,90,0.00,,,-99.99,0.000000,,2013-03-22 10:12:00,
2013-03-22 06:22:00,44.0,41.0,-100.00,East,79,1.0,-999.0,90,0.00,,,-99.99,0.000000,,2013-03-22 10:22:00,
2013-03-22 06:32:00,43.0,41.0,-100.00,ENE,71,1.0,-999.0,91,0.00,,,-99.99,0.000000,,2013-03-22 10:32:00,
2013-03-22 06:42:00,43.0,41.0,-100.00,NNE,32,2.0,-999.0,92,0.00,,,-99.99,0.000000,,2013-03-22 10:42:00,
2013-03-22 06:52:00,43.0,41.0,-100.00,NNE,32,2.0,-999.0,92,0.00,,,-99.99,0.000000,,2013-03-22 10:52:00,
2013-03-22 07:03:00,44.0,42.0,-100.00,North,349,4.0,-999.0,92,0.00,,,-99.99,0.000000,,2013-03-22 11:03:00,
2013-03-22 07:12:00,45.0,43.0,-100.00,North,0,4.0,-999.0,92,0.00,,,-99.99,0.000000,,2013-03-22 11:12:00,
2013-03-22 07:22:00,45.0,43.0,-100.00,North,0,4.0,-999.0,92,0.00,,,-99.99,0.000000,,2013-03-22 11:22:00,
2013-03-22 07:33:00,45.0,42.0,-100.00,ESE,105,2.0,-999.0,91,0.00,,,-99.99,0.100000,,2013-03-22 11:33:00,
2013-03-22 07:42:00,43.0,41.0,-100.00,NE,48,2.0,-999.0,91,0.00,,,-99.99,2.000000,,2013-03-22 11:42:00,
2013-03-22 07:52:00,43.0,41.0,-100.00,NE,48,2.0,-999.0,91,0.00,,,-99.99,2.000000,,2013-03-22 11:52:00,
2013-03-22 08:02:00,43.0,41.0,-100.00,NNE,30,3.0,-999.0,92,0.00,,,-99.99,11.300000,,2013-03-22 12:02:00,
2013-03-22 08:12:00,45.0,42.0,-100.00,NNE,27,5.0,-999.0,89,0.00,,,-99.99,29.000000,,2013-03-22 12:12:00,
2013-03-22 08:22:00,45.0,42.0,-100.00,NNE,27,5.0,-999.0,89,0.00,,,-99.99,29.000000,,2013-03-22 12:22:00,
2013-03-22 08:32:00,49.0,43.0,-100.00,NNE,28,6.0,-999.0,79,0.00,,,-99.99,49.900002,,2013-03-22 12:32:00,
2013-03-22 08:42:00,50.0,42.0,-100.00,NNE,23,7.0,-999.0,74,0.00,,,-99.99,108.199997,,2013-03-22 12:42:00,
2013-03-22 08:52:00,50.0,42.0,-100.00,NNE,23,7.0,-999.0,74,0.00,,,-99.99,108.199997,,2013-03-22 12:52:00,
2013-03-22 09:02:00,52.0,43.0,-100.00,NNE,24,6.0,-999.0,69,0.00,,,-99.99,239.199997,,2013-03-22 13:02:00,
2013-03-22 09:12:00,55.0,44.0,-100.00,NNE,33,7.0,-999.0,67,0.00,,,-99.99,234.399994,,2013-03-22 13:12:00,
2013-03-22 09:22:00,55.0,44.0,-100.00,NNE,33,7.0,-999.0,67,0.00,,,-99.99,234.399994,,2013-03-22 13:22:00,
2013-03-22 09:32:00,55.0,44.0,-100.00,NE,39,8.0,-999.0,66,0.00,,,-99.99,213.100006,,2013-03-22 13:32:00,
2013-03-22 09:42:00,56.0,44.0,-100.00,NE,39,7.0,-999.0,63,0.00,,,-99.99,378.700012,,2013-03-22 13:42:00,
2013-03-22 09:52:00,56.0,44.0,-100.00,NE,39,7.0,-999.0,63,0.00,,,-99.99,378.700012,,2013-03-22 13:52:00,
2013-03-22 10:02:00,58.0,44.0,-100.00,NE,39,9.0,-999.0,58,0.00,,,-99.99,421.899994,,2013-03-22 14:02:00,
2013-03-22 10:12:00,61.0,43.0,-100.00,NE,54,8.0,-999.0,52,0.00,,,-99.99,482.799988,,2013-03-22 14:12:00,
2013-03-22 10:22:00,61.0,43.0,-100.00,NE,54,8.0,-999.0,52,0.00,,,-99.99,482.799988,,2013-03-22 14:22:00,
2013-03-22 10:32:00,62.0,43.0,-100.00,NE,43,7.0,-999.0,49,0.00,,,-99.99,395.399994,,2013-03-22 14:32:00,
2013-03-22 10:42:00,63.0,43.0,-100.00,ENE,57,8.0,-999.0,47,0.00,,,-99.99,431.100006,,2013-03-22 14:42:00,
2013-03-22 10:52:00,63.0,43.0,-100.00,ENE,57,8.0,-999.0,47,0.00,,,-99.99,431.100006,,2013-03-22 14:52:00,
2013-03-22 11:03:00,63.0,43.0,-100.00,ENE,68,10.0,-999.0,47,0.00,,,-99.99,516.400024,,2013-03-22 15:03:00,
2013-03-22 11:12:00,64.0,42.0,-100.00,ENE,75,9.0,-999.0,44,0.00,,,-99.99,490.000000,,2013-03-22 15:12:00,
2013-03-22 11:22:00,64.0,42.0,-100.00,ENE,75,9.0,-999.0,44,0.00,,,-99.99,490.000000,,2013-03-22 15:22:00,
2013-03-22 11:33:00,65.0,42.0,-100.00,East,91,9.0,-999.0,42,0.00,,,-99.99,329.299988,,2013-03-22 15:33:00,
2013-03-22 11:43:00,65.0,41.0,-100.00,East,92,6.0,-999.0,41,0.00,,,-99.99,315.799988,,2013-03-22 15:43:00,
2013-03-22 11:53:00,65.0,41.0,-100.00,East,92,6.0,-999.0,41,0.00,,,-99.99,315.799988,,2013-03-22 15:53:00,
2013-03-22 12:03:00,66.0,40.0,-100.00,East,91,8.0,-999.0,39,0.00,,,-99.99,377.700012,,2013-03-22 16:03:00,
2013-03-22 12:13:00,67.0,42.0,-100.00,ENE,77,7.0,-999.0,40,0.00,,,-99.99,467.100006,,2013-03-22 16:13:00,
2013-03-22 12:23:00,67.0,42.0,-100.00,ENE,77,7.0,-999.0,40,0.00,,,-99.99,467.100006,,2013-03-22 16:23:00,
2013-03-22 12:32:00,68.0,40.0,-100.00,East,91,7.0,-999.0,36,0.00,,,-99.99,725.000000,,2013-03-22 16:32:00,
2013-03-22 12:42:00,68.0,40.0,-100.00,East,92,8.0,-999.0,34,0.00,,,-99.99,756.000000,,2013-03-22 16:42:00,
2013-03-22 12:52:00,68.0,40.0,-100.00,East,92,8.0,-999.0,34,0.00,,,-99.99,756.000000,,2013-03-22 16:52:00,
2013-03-22 13:03:00,69.0,40.0,-100.00,East,89,8.0,-999.0,33,0.00,,,-99.99,779.000000,,2013-03-22 17:03:00,
2013-03-22 13:12:00,71.0,39.0,-100.00,East,96,8.0,-999.0,31,0.00,,,-99.99,854.000000,,2013-03-22 17:12:00,
2013-03-22 13:23:00,71.0,39.0,-100.00,East,96,8.0,-999.0,31,0.00,,,-99.99,854.000000,,2013-03-22 17:23:00,
2013-03-22 13:32:00,71.0,41.0,-100.00,ESE,123,7.0,-999.0,32,0.00,,,-99.99,971.000000,,2013-03-22 17:32:00,
2013-03-22 13:42:00,72.0,43.0,-100.00,SSE,151,6.0,-999.0,34,0.00,,,-99.99,926.000000,,2013-03-22 17:42:00,
2013-03-22 13:53:00,72.0,43.0,-100.00,SSE,151,6.0,-999.0,34,0.00,,,-99.99,926.000000,,2013-03-22 17:53:00,
2013-03-22 14:02:00,72.0,43.0,-100.00,ESE,110,7.0,-999.0,35,0.00,,,-99.99,877.000000,,2013-03-22 18:02:00,
2013-03-22 14:12:00,72.0,43.0,-100.00,SSE,155,6.0,-999.0,35,0.00,,,-99.99,796.000000,,2013-03-22 18:12:00,
2013-03-22 14:22:00,72.0,43.0,-100.00,SSE,155,6.0,-999.0,35,0.00,,,-99.99,796.000000,,2013-03-22 18:22:00,
2013-03-22 14:33:00,73.0,44.0,-100.00,SSW,195,3.0,-999.0,35,0.00,,,-99.99,584.299988,,2013-03-22 18:33:00,
2013-03-22 14:42:00,74.0,45.0,-100.00,SE,125,5.0,-999.0,35,0.00,,,-99.99,668.700012,,2013-03-22 18:42:00,
2013-03-22 14:52:00,74.0,45.0,-100.00,SE,125,5.0,-999.0,35,0.00,,,-99.99,668.700012,,2013-03-22 18:52:00,
2013-03-22 15:02:00,74.0,45.0,-100.00,SE,136,5.0,-999.0,35,0.00,,,-99.99,709.000000,,2013-03-22 19:02:00,
2013-03-22 15:12:00,74.0,45.0,-100.00,SSE,150,4.0,-999.0,35,0.00,,,-99.99,736.000000,,2013-03-22 19:12:00,
2013-03-22 15:22:00,74.0,45.0,-100.00,SSE,150,4.0,-999.0,35,0.00,,,-99.99,736.000000,,2013-03-22 19:22:00,
2013-03-22 15:32:00,74.0,45.0,-100.00,SSE,154,5.0,-999.0,35,0.00,,,-99.99,609.400024,,2013-03-22 19:32:00,
2013-03-22 15:42:00,75.0,45.0,-100.00,SSE,154,6.0,-999.0,33,0.00,,,-99.99,792.000000,,2013-03-22 19:42:00,
2013-03-22 15:52:00,75.0,45.0,-100.00,SSE,154,6.0,-999.0,33,0.00,,,-99.99,792.000000,,2013-03-22 19:52:00,
2013-03-22 16:02:00,75.0,43.0,-100.00,SSE,156,6.0,-999.0,31,0.00,,,-99.99,388.600006,,2013-03-22 20:02:00,
2013-03-22 16:12:00,76.0,44.0,-100.00,SSE,165,5.0,-999.0,32,0.00,,,-99.99,577.200012,,2013-03-22 20:12:00,
2013-03-22 16:22:00,76.0,44.0,-100.00,SSE,165,5.0,-999.0,32,0.00,,,-99.99,577.200012,,2013-03-22 20:22:00,
2013-03-22 16:32:00,76.0,45.0,-100.00,SSE,168,6.0,-999.0,33,0.00,,,-99.99,348.799988,,2013-03-22 20:32:00,
2013-03-22 16:43:00,77.0,45.0,-100.00,SSE,149,6.0,-999.0,32,0.00,,,-99.99,724.000000,,2013-03-22 20:43:00,
2013-03-22 16:52:00,77.0,45.0,-100.00,SSE,149,6.0,-999.0,32,0.00,,,-99.99,724.000000,,2013-03-22 20:52:00,
2013-03-22 17:03:00,77.0,46.0,-100.00,ESE,104,7.0,-999.0,32,0.00,,,-99.99,666.400024,,2013-03-22 21:03:00,
2013-03-22 17:12:00,77.0,46.0,-100.00,ESE,120,6.0,-999.0,33,0.00,,,-99.99,487.500000,,2013-03-22 21:12:00,
2013-03-22 17:22:00,77.0,46.0,-100.00,ESE,120,6.0,-999.0,33,0.00,,,-99.99,487.500000,,2013-03-22 21:22:00,
2013-03-22 17:33:00,76.0,46.0,-100.00,ESE,115,5.0,-999.0,34,0.00,,,-99.99,176.000000,,2013-03-22 21:33:00,
2013-03-22 17:43:00,76.0,46.0,-100.00,ESE,114,5.0,-999.0,34,0.00,,,-99.99,155.699997,,2013-03-22 21:43:00,
2013-03-22 17:53:00,76.0,46.0,-100.00,ESE,114,5.0,-999.0,34,0.00,,,-99.99,155.699997,,2013-03-22 21:53:00,
2013-03-22 18:03:00,76.0,47.0,-100.00,East,87,5.0,-999.0,35,0.00,,,-99.99,196.300003,,2013-03-22 22:03:00,
2013-03-22 18:12:00,76.0,47.0,-100.00,ENE,59,6.0,-999.0,35,0.00,,,-99.99,128.899994,,2013-03-22 22:12:00,
2013-03-22 18:23:00,76.0,47.0,-100.00,ENE,59,6.0,-999.0,35,0.00,,,-99.99,128.899994,,2013-03-22 22:23:00,
2013-03-22 18:32:00,72.0,47.0,-100.00,ENE,60,9.0,-999.0,41,0.00,,,-99.99,38.700001,,2013-03-22 22:32:00,
2013-03-22 18:43:00,71.0,47.0,-100.00,NE,51,9.0,-999.0,42,0.00,,,-99.99,32.500000,,2013-03-22 22:43:00,
2013-03-22 18:53:00,71.0,47.0,-100.00,NE,51,9.0,-999.0,42,0.00,,,-99.99,32.500000,,2013-03-22 22:53:00,
2013-03-22 19:02:00,70.0,48.0,-100.00,ENE,60,10.0,-999.0,44,0.00,,,-99.99,38.500000,,2013-03-22 23:02:00,
2013-03-22 19:12:00,69.0,48.0,-100.00,ENE,77,8.0,-999.0,46,0.00,,,-99.99,33.299999,,2013-03-22 23:12:00,
2013-03-22 19:22:00,69.0,48.0,-100.00,ENE,77,8.0,-999.0,46,0.00,,,-99.99,33.299999,,2013-03-22 23:22:00,
2013-03-22 19:32:00,69.0,49.0,-100.00,East,85,6.0,-999.0,48,0.00,,,-99.99,11.400000,,2013-03-22 23:32:00,
2013-03-22 19:42:00,69.0,49.0,-100.00,East,85,6.0,-999.0,48,0.00,,,-99.99,11.400000,,2013-03-22 23:42:00,
2013-03-22 19:52:00,68.0,49.0,-100.00,East,82,7.0,-999.0,49,0.00,,,-99.99,10.900000,,2013-03-22 23:52:00,
2013-03-22 20:02:00,68.0,49.0,-100.00,East,79,7.0,-999.0,50,0.00,,,-99.99,2.400000,,2013-03-23 00:02:00,
2013-03-22 20:12:00,67.0,49.0,-100.00,East,81,6.0,-999.0,52,0.00,,,-99.99,0.400000,,2013-03-23 00:12:00,
2013-03-22 20:23:00,67.0,49.0,-100.00,East,81,6.0,-999.0,52,0.00,,,-99.99,0.400000,,2013-03-23 00:23:00,
2013-03-22 20:33:00,66.0,49.0,-100.00,East,80,6.0,-999.0,54,0.00,,,-99.99,0.000000,,2013-03-23 00:33:00,
2013-03-22 20:42:00,66.0,50.0,-100.00,ESE,105,5.0,-999.0,56,0.00,,,-99.99,0.000000,,2013-03-23 00:42:00,
2013-03-22 20:52:00,66.0,50.0,-100.00,ESE,105,5.0,-999.0,56,0.00,,,-99.99,0.000000,,2013-03-23 00:52:00,
2013-03-22 21:03:00,65.0,50.0,-100.00,East,101,5.0,-999.0,58,0.00,,,-99.99,0.000000,,2013-03-23 01:03:00,
2013-03-22 21:12:00,64.0,51.0,-100.00,East,95,4.0,-999.0,62,0.00,,,-99.99,0.000000,,2013-03-23 01:12:00,
2013-03-22 21:22:00,64.0,51.0,-100.00,East,95,4.0,-999.0,62,0.00,,,-99.99,0.000000,,2013-03-23 01:22:00,
2013-03-22 21:32:00,63.0,51.0,-100.00,ENE,59,2.0,-999.0,64,0.00,,,-99.99,0.000000,,2013-03-23 01:32:00,
2013-03-22 21:42:00,63.0,51.0,-100.00,ENE,73,4.0,-999.0,66,0.00,,,-99.99,0.000000,,2013-03-23 01:42:00,
2013-03-22 21:52:00,63.0,51.0,-100.00,ENE,73,4.0,-999.0,66,0.00,,,-99.99,0.000000,,2013-03-23 01:52:00,
2013-03-22 22:02:00,62.0,51.0,-100.00,East,83,4.0,-999.0,68,0.00,,,-99.99,0.000000,,2013-03-23 02:02:00,
2013-03-22 22:12:00,62.0,51.0,-100.00,East,83,4.0,-999.0,68,0.00,,,-99.99,0.000000,,2013-03-23 02:12:00,
2013-03-22 22:22:00,62.0,51.0,-100.00,NE,50,3.0,-999.0,68,0.00,,,-99.99,0.000000,,2013-03-23 02:22:00,
2013-03-22 22:32:00,62.0,50.0,-100.00,NE,42,4.0,-999.0,65,0.00,,,-99.99,0.000000,,2013-03-23 02:32:00,
2013-03-22 22:42:00,62.0,50.0,-100.00,NE,39,4.0,-999.0,64,0.00,,,-99.99,0.000000,,2013-03-23 02:42:00,
2013-03-22 22:52:00,62.0,50.0,-100.00,NE,39,4.0,-999.0,64,0.00,,,-99.99,0.000000,,2013-03-23 02:52:00,
2013-03-22 23:02:00,62.0,50.0,-100.00,NE,44,4.0,-999.0,65,0.00,,,-99.99,0.000000,,2013-03-23 03:02:00,
2013-03-22 23:12:00,62.0,50.0,-100.00,NE,45,3.0,-999.0,66,0.00,,,-99.99,0.000000,,2013-03-23 03:12:00,
2013-03-22 23:22:00,62.0,50.0,-100.00,NE,45,3.0,-999.0,66,0.00,,,-99.99,0.000000,,2013-03-23 03:22:00,
2013-03-22 23:33:00,61.0,51.0,-100.00,NNE,27,3.0,-999.0,68,0.00,,,-99.99,0.000000,,2013-03-23 03:33:00,
2013-03-22 23:43:00,61.0,51.0,-100.00,NNE,19,2.0,-999.0,70,0.00,,,-99.99,0.000000,,2013-03-23 03:43:00,
2013-03-22 23:53:00,61.0,51.0,-100.00,NNE,19,2.0,-999.0,70,0.00,,,-99.99,0.000000,,2013-03-23 03:53:00,